Location: Bílinka
(49.3579°N, 14.3767°E)
Time: 21:23:25
(UTC+00:00)

FENGYUN 1C DEB - Visible Passes

Search period start: 26 February 2024 00:00
Search period end: 07 March 2024 00:00
Orbit: 756 x 983 km, 98.8° (Epoch: 25 February)

Date Brightness Start Highest point End Pass type
(mag) Time Alt. Az. Time Alt. Az. Time Alt. Az.
26 Feb ? 17:50:51 10° SSE 17:56:37 79° WSW 18:02:45 10° NNW visible
26 Feb ? 19:35:39 10° WSW 19:38:44 14° W 19:41:53 10° NW visible
27 Feb ? 17:44:29 10° SSE 17:50:18 87° WSW 17:56:27 10° NNW visible
27 Feb ? 19:28:44 10° WSW 19:32:18 16° W 19:35:57 10° NW visible
28 Feb ? 17:38:10 10° SSE 17:43:59 85° ENE 17:50:09 10° NNW visible
28 Feb ? 19:21:55 10° SW 19:25:52 18° W 19:29:56 10° NW visible
29 Feb ? 17:31:49 10° SSE 17:37:41 78° ENE 17:43:49 10° NNW visible
29 Feb ? 19:15:10 10° SW 19:19:26 21° W 19:23:52 10° NW visible
01 Mar ? 17:25:31 10° SSE 17:31:22 71° ENE 17:37:30 10° NNW visible
01 Mar ? 19:08:27 10° SW 19:13:01 23° W 19:17:45 10° NW visible
02 Mar ? 17:19:15 10° SSE 17:25:04 64° ENE 17:31:10 10° N visible
02 Mar ? 19:01:47 10° SW 19:06:36 26° W 19:11:36 10° NW visible
03 Mar ? 17:12:58 10° SE 17:18:47 59° ENE 17:24:49 10° N visible
03 Mar ? 18:55:09 10° SSW 19:00:12 28° W 19:05:26 10° NNW visible
04 Mar ? 18:48:35 10° SSW 18:53:48 32° W 18:59:14 10° NNW visible
05 Mar ? 18:42:00 10° SSW 18:47:25 35° W 18:53:01 10° NNW visible
06 Mar ? 18:35:29 10° SSW 18:41:02 39° W 18:46:47 10° NNW visible
